Accueil
METAR-TAF:

METAR-TAF

Aéroports :

Hofu, Japon

latitude: 34-02N, longitude: 131-33E, altitude: 2 m

Observation

Le bulletin a été fait il y a 20 heures et 35 minutes, à 02:50 UTC
Vent 9 kt de nord-ouest
Température 16°C
Humidité 45%
Pression 1022 hPa
Visibilité 10 km ou plus
Quelques nuages à une hauteur de 2500 ft
Nuages fragmentés à une hauteur de 3500 ft

METAR: RJOF 200250Z 32009KT 9999 FEW025 BKN035 16/04 Q1022 RMK 1CU025 5CU035 A3021

Heure: 08:25 (23:25 UTC)


TAF: absent

Observations et prévisions météorologiques de plus de 4000 aéroports (messages METAR et TAF).

Les stations disponibles sont représentées par des disques jaunes et rouges sur la carte.

Passer la souris dessus pour voir le nom de la station.

Cliquer dessus pour voir les observations et prévisions météorologiques.

Pour changer de carte: cliquez sur les boutons verts avec une croix noire pour zoomer, sur le bouton vert avec un tiret pour effectuer un zoom arrière, ou sur les flèches vertes pour les cartes adjacentes.


METAR-TAF: